FW3192 Weather Reports


Display with metric or nautical units.
time (UTC)temp
F
wind
direction
speed
MPH
gust
MPH
rain 1hr
in
rain 24hr
in
rain mn
in
humidity
%
barometer
mb
20260510070008 62 188 5.0 8.0 0.00 0.27 0.27 67 1027.6
20260510064517 62 202 6.0 8.0 0.00 0.27 0.27 68 1027.6
20260510063004 62 209 5.0 8.0 0.00 0.27 0.27 66 1027.5
20260510061550 62 185 7.0 10.0 0.00 0.27 0.27 66 1027.4
20260510060049 62 210 6.0 10.0 0.00 0.27 0.27 66 1027.4
20260510054549 63 211 4.0 7.0 0.00 0.27 0.27 66 1027.4
20260510053048 63 211 3.0 6.0 0.00 0.27 0.27 64 1027.4
20260510051553 63 210 4.0 6.0 0.00 0.27 0.27 64 1027.4
20260510050047 63 217 5.0 8.0 0.00 0.27 0.27 64 1027.4
20260510044547 63 241 3.0 7.0 0.00 0.27 0.27 63 1027.5
20260510043045 63 254 5.0 8.0 0.00 0.27 0.27 63 1027.5
20260510041539 64 239 3.0 6.0 0.00 0.27 0.27 61 1027.5
20260510040038 65 6 2.0 6.0 0.00 0.27 0.27 60 1027.6
20260510034534 64 358 3.0 6.0 0.00 0.27 0.27 60 1027.7
20260510033034 65 67 0.0 5.0 0.00 0.27 0.27 59 1027.9
20260510031529 64 74 2.0 8.0 0.00 0.27 0.27 61 1028.1
20260510030027 64 62 0.0 5.0 0.00 0.27 0.27 61 1028.2
20260510024508 63 154 2.0 4.0 0.00 0.27 0.27 60 1028.5
20260510023004 63 33 1.0 7.0 0.00 0.27 0.27 63 1028.8
20260510021505 63 151 4.0 7.0 0.00 0.27 0.27 64 1029.0
20260510020058 62 108 4.0 6.0 0.00 0.27 0.27 66 1029.2
20260510014555 62 104 5.0 10.0 0.00 0.27 0.27 67 1029.4
20260510013053 61 91 4.0 7.0 0.00 0.27 0.27 71 1029.4
20260510011549 61 110 5.0 9.0 0.00 0.27 0.27 72 1029.4
20260510010045 60 120 5.0 8.0 0.00 0.27 0.27 77 1029.5
20260510004527 59 100 4.0 7.0 0.05 0.27 0.27 83 1029.5
20260510003024 57 99 3.0 5.0 0.27 0.27 0.27 88 1029.5
20260510001520 56 121 2.0 4.0 0.27 0.27 0.27 91 1029.5
20260510000017 55 90 1.0 3.0 0.27 0.27 0.27 92 1029.7
20260509234529 54 106 1.0 3.0 0.15 0.15 0.15 93 1029.7
20260509233012 54 78 0.0 2.0 0.00 0.00 0.00 93 1029.7
20260509231515 53 75 2.0 3.0 0.00 0.00 0.00 94 1029.7
20260509230005 52 89 1.0 2.0 0.00 0.00 0.00 94 1029.6
20260509224557 52 45 0.0 2.0 0.00 0.00 0.00 94 1029.5
20260509223051 51 85 0.0 1.0 0.00 0.00 0.00 94 1029.4
20260509221544 51 46 0.0 0.0 0.00 0.00 0.00 94 1029.2
20260509220042 50 34 0.0 0.0 0.00 0.00 0.00 94 1029.1
20260509214543 50 92 0.0 0.0 0.00 0.00 0.00 94 1028.8
20260509213042 49 93 0.0 0.0 0.00 0.00 0.00 94 1028.7
20260509211540 49 43 0.0 0.0 0.00 0.00 0.00 94 1028.5
20260509210047 49 33 0.0 0.0 0.00 0.00 0.00 94 1028.5
20260509204526 49 85 0.0 0.0 0.00 0.00 0.00 94 1028.4
20260509203031 48 57 0.0 0.0 0.00 0.00 0.00 94 1028.2
20260509201526 48 44 0.0 0.0 0.00 0.00 0.00 94 1028.1
20260509200025 48 43 0.0 0.0 0.00 0.00 0.00 94 1028.0
20260509194527 47 43 0.0 0.0 0.00 0.00 0.00 94 1027.9
20260509193024 47 43 0.0 0.0 0.00 0.00 0.00 93 1027.8
20260509191525 48 76 0.0 0.0 0.00 0.00 0.00 94 1027.7
20260509190023 47 63 0.0 0.0 0.00 0.00 0.00 94 1027.6
20260509184518 46 33 0.0 0.0 0.00 0.00 0.00 94 1027.4
20260509183005 48 33 0.0 0.0 0.00 0.00 0.00 93 1027.4
20260509181503 49 33 0.0 0.0 0.00 0.00 0.00 94 1027.3
20260509180002 48 33 0.0 0.0 0.00 0.00 0.00 93 1027.3
20260509174501 49 33 0.0 0.0 0.00 0.00 0.00 93 1027.4
20260509173111 50 78 0.0 1.0 0.00 0.00 0.00 94 1027.4
20260509171600 49 133 1.0 2.0 0.00 0.00 0.00 94 1027.4
20260509170058 49 133 1.0 3.0 0.00 0.00 0.00 94 1027.3
20260509164544 49 135 0.0 0.0 0.00 0.00 0.00 93 1027.4
20260509163044 49 135 0.0 1.0 0.00 0.00 0.00 93 1027.5
20260509161552 49 135 0.0 2.0 0.00 0.00 0.00 93 1027.6
20260509160043 50 135 0.0 2.0 0.00 0.00 0.00 94 1027.7
20260509154541 49 25 0.0 0.0 0.00 0.00 0.00 93 1027.7
20260509153041 49 25 0.0 1.0 0.00 0.00 0.00 94 1027.8
20260509151542 50 25 0.0 0.0 0.00 0.00 0.00 93 1027.8
20260509150039 49 25 0.0 0.0 0.00 0.00 0.00 93 1027.8
20260509144520 50 24 0.0 0.0 0.00 0.00 0.00 92 1027.9
20260509143020 50 25 0.0 0.0 0.00 0.00 0.00 92 1027.9
20260509141512 50 25 0.0 0.0 0.00 0.00 0.00 92 1028.0
20260509140002 51 60 0.0 0.0 0.00 0.00 0.00 93 1027.9
20260509134503 51 60 0.0 0.0 0.00 0.00 0.00 92 1028.0
20260509133001 52 60 0.0 0.0 0.00 0.00 0.00 93 1028.0
20260509131505 51 60 0.0 1.0 0.00 0.00 0.00 91 1028.1
20260509130002 52 60 0.0 0.0 0.00 0.00 0.00 91 1028.1
20260509124601 53 78 0.0 1.0 0.00 0.00 0.00 92 1028.1
20260509123100 53 39 0.0 1.0 0.00 0.00 0.00 92 1028.1
20260509121559 52 39 0.0 1.0 0.00 0.00 0.00 91 1028.0
20260509120042 52 39 1.0 3.0 0.00 0.00 0.00 91 1027.9
20260509114540 54 121 0.0 1.0 0.00 0.00 0.00 91 1027.9
20260509113020 54 116 1.0 2.0 0.00 0.00 0.00 90 1027.7
20260509111520 55 115 2.0 3.0 0.00 0.00 0.00 89 1027.7
20260509110018 56 153 0.0 1.0 0.00 0.00 0.00 89 1027.7
20260509104518 56 153 0.0 1.0 0.00 0.00 0.00 87 1027.8
20260509103017 57 153 2.0 3.0 0.00 0.00 0.00 87 1027.8
20260509101527 57 153 2.0 3.0 0.00 0.00 0.00 86 1027.7
20260509100016 57 153 2.0 3.0 0.00 0.00 0.00 86 1027.8
20260509094521 58 159 3.0 4.0 0.00 0.00 0.00 86 1027.7
20260509093002 58 148 3.0 4.0 0.00 0.00 0.00 86 1027.6
20260509091502 58 151 3.0 4.0 0.00 0.00 0.00 84 1027.5
20260509090001 59 155 4.0 6.0 0.00 0.00 0.00 83 1027.5
20260509084608 60 156 4.0 6.0 0.00 0.00 0.00 83 1027.4
20260509083059 61 163 6.0 9.0 0.00 0.00 0.00 82 1027.2
20260509081559 61 191 6.0 10.0 0.00 0.00 0.00 82 1027.1
20260509080059 62 209 6.0 12.0 0.00 0.00 0.00 83 1027.0
20260509074603 62 152 10.0 17.0 0.00 0.00 0.00 82 1027.0
20260509073138 62 215 10.0 14.0 0.00 0.00 0.00 81 1027.0
20260509071546 63 199 11.0 14.0 0.00 0.00 0.00 81 1027.0